Preview of NWS' New Version of Forecast
This preview is not operational and should not be used for support decisions.

Regional Weather Roundup (RWR)

Issued by National Weather Service (NWS)

                            
000
ASUS45 KBOI 241410
RWRID 

IDAHO REGIONAL WEATHER ROUNDUP
NATIONAL WEATHER SERVICE BOISE ID
800 AM MDT WED APR 24 2019

NOTE: "FAIR" INDICATES FEW OR NO CLOUDS BELOW 12000 FEET
WITH NO SIGNIFICANT WEATHER AND/OR OBSTRUCTIONS TO VISIBILITY

IDZ012-014-241500-
SOUTHWEST IDAHO

  
CITY           SKY/WX    TMP DP  RH WIND       PRES   REMARKS
BOISE          PTSUNNY   51  49  92 CALM      30.09R                  
CALDWELL       CLOUDY    53  50  89 W7        30.09R                  
MOUNTAIN HOME  MOSUNNY   48  48 100 W3        30.08R                  
$$

IDZ016-017-241500-
SOUTHCENTRAL IDAHO

  
CITY           SKY/WX    TMP DP  RH WIND       PRES   REMARKS
BURLEY         FAIR      51  43  74 SW8       30.08R                  
JEROME         FAIR      50  43  77 S5        30.09R                  
TWIN FALLS     FAIR      51  43  74 S12       30.10R                  
$$

IDZ019>023-241500-
SOUTHEAST IDAHO

  
CITY           SKY/WX    TMP DP  RH WIND       PRES   REMARKS
IDAHO FALLS    FAIR      47  41  80 SW10      30.08R                  
POCATELLO      FAIR      52  42  69 SW13      30.09R                  
REXBURG        FAIR      49  38  65 S8        30.07R                  
$$

IDZ006-010-011-018-031-032-241500-
CENTRAL IDAHO MOUNTAINS

  
CITY           SKY/WX    TMP DP  RH WIND       PRES   REMARKS
MCCALL         CLOUDY    39  37  92 CALM      30.10R FOG              
HAILEY         MOSUNNY   43  36  75 W9        30.12R                  
STANLEY          N/A     34  29  82 VRB5      30.15S WCI  30          
SALMON         CLOUDY    45  40  82 N6        30.07R                  
CHALLIS        CLOUDY    45  37  73 CALM      30.09R                  
$$

IDZ002-004-006-007-026-241500-
NORTHERN IDAHO

  
CITY           SKY/WX    TMP DP  RH WIND       PRES   REMARKS
LEWISTON       FAIR      53  36  52 NW5       30.13R                  
LOWELL           N/A     50  49  96 CALM      30.13R                  
COEUR D'ALENE  FAIR      44  36  73 S6        30.10R                  
MULLAN PASS    FAIR      33  26  75 VRB5      30.06R WCI  29          
$$